Regional Weather Roundup
Issued by NWS

Home | Current Version | Previous Version | Graphics & Text | Print | Product List | Glossary On
Versions: 1 2 3 4 5 6 7 8 9 10 11 12 13 14 15 16 17 18 19 20 21 22 23 24 25 26 27 28 29 30 31 32 33 34 35 36 37 38 39 40 41 42 43 44 45 46 47 48 49 50
000
ASUS44 KMEG 162100
RWRTN
TENNESSEE HOURLY STATE WEATHER ROUNDUP
NATIONAL WEATHER SERVICE MEMPHIS TN
300 PM CST SAT DEC 16 2017

TNZ002-004-019-021-049-052-054-088>092-162200-
WEST TENNESSEE

CITY           SKY/WX    TMP DP  RH WIND       PRES   REMARKS
MEMPHIS INTL   CLOUDY    52  31  44 S12       30.16S
NWS MEMPHIS      N/A     53 N/A N/A MISG        N/A
JACKSON        CLOUDY    54  30  40 S13       30.16S
DYERSBURG      CLOUDY    53  29  39 SW12      30.14S
$$

TNZ008-025-027-028-033-062-065-066-162200-
NORTH MIDDLE TENNESSEE

CITY           SKY/WX    TMP DP  RH WIND       PRES   REMARKS
NASHVILLE      CLOUDY    52  28  39 SW9       30.16F
CLARKSVILLE    CLOUDY    52  25  35 SW14      30.13F
SMYRNA         CLOUDY    51  29  42 S6        30.18F
CROSSVILLE     CLOUDY    45  28  51 SE5       30.17F
$$

TNZ061-075-076-078-094-096-097-162200-
SOUTH MIDDLE TENNESSEE

CITY           SKY/WX    TMP DP  RH WIND       PRES   REMARKS
WINCHESTER     SUNNY     50  28  43 S3        30.20F
$$

TNZ017-018-042-046-047-162200-
NORTHEAST TENNESSEE

CITY           SKY/WX    TMP DP  RH WIND       PRES   REMARKS
TRI CITIES     MOSUNNY   46  28  49 SW8       30.19S
$$

TNZ012-013-036-069-073-074-162200-
CENTRAL EAST TENNESSEE

CITY           SKY/WX    TMP DP  RH WIND       PRES   REMARKS
KNOXVILLE      CLOUDY    47  31  53 SW10      30.20F
OAK RIDGE      SUNNY     48  29  47 SW7       30.21F
$$

TNZ083-085-099-162200-
SOUTHEAST TENNESSEE

CITY           SKY/WX    TMP DP  RH WIND       PRES   REMARKS
CHATTANOOGA    CLOUDY    50  27  40 SE5       30.23F
$$

SKY/WX REPORTED AS FAIR MEANS FEW OR NO CLOUDS BELOW
12 THOUSAND FEET.





USA.gov is the U.S. government's official web portal to all federal, state and local government web resources and services.